Time,TemperatureF,DewpointF,PressureIn,WindDirection,WindDirectionDegrees,WindSpeedMPH,WindSpeedGustMPH,Humidity,HourlyPrecipIn,Conditions,Clouds,dailyrainin,SoftwareType,DateUTC
2015-03-28 00:12:00,33.0,20.0,29.91,WNW,284,0.0,-999.0,59,-99.99,,,-99.99,,2015-03-28 04:12:00,
2015-03-28 00:22:00,32.0,20.0,29.91,WSW,240,0.0,-999.0,60,-99.99,,,-99.99,,2015-03-28 04:22:00,
2015-03-28 00:42:00,32.0,20.0,29.91,WNW,286,0.0,-999.0,61,-99.99,,,-99.99,,2015-03-28 04:42:00,
2015-03-28 00:53:00,32.0,20.0,29.91,WNW,284,0.0,-999.0,62,-99.99,,,-99.99,,2015-03-28 04:53:00,
2015-03-28 01:12:00,32.0,21.0,29.91,WSW,249,0.0,-999.0,63,-99.99,,,-99.99,,2015-03-28 05:12:00,
2015-03-28 01:22:00,31.0,20.0,29.91,WSW,252,0.0,-999.0,63,-99.99,,,-99.99,,2015-03-28 05:22:00,
2015-03-28 01:42:00,31.0,20.0,29.91,SW,225,0.0,-999.0,64,-99.99,,,-99.99,,2015-03-28 05:42:00,
2015-03-28 01:52:00,31.0,20.0,29.91,WSW,252,0.0,-999.0,64,-99.99,,,-99.99,,2015-03-28 05:52:00,
2015-03-28 02:12:00,31.0,21.0,29.91,NW,313,0.0,-999.0,65,-99.99,,,-99.99,,2015-03-28 06:12:00,
2015-03-28 02:22:00,31.0,21.0,29.91,WNW,297,0.0,-999.0,65,-99.99,,,-99.99,,2015-03-28 06:22:00,
2015-03-28 02:51:00,30.0,21.0,29.90,WNW,297,0.0,-999.0,68,-99.99,,,-99.99,,2015-03-28 06:51:00,
2015-03-28 03:11:00,30.0,21.0,29.90,NW,309,0.0,-999.0,70,-99.99,,,-99.99,,2015-03-28 07:11:00,
2015-03-28 03:22:00,29.0,20.0,29.90,WNW,290,0.0,-999.0,70,-99.99,,,-99.99,,2015-03-28 07:22:00,
2015-03-28 03:41:00,29.0,21.0,29.90,WNW,302,0.0,-999.0,71,-99.99,,,-99.99,,2015-03-28 07:41:00,
2015-03-28 03:51:00,29.0,20.0,29.90,NW,313,0.0,-999.0,70,-99.99,,,-99.99,,2015-03-28 07:51:00,
2015-03-28 04:22:00,28.0,20.0,29.90,West,281,0.0,-999.0,70,-99.99,,,-99.99,,2015-03-28 08:22:00,
2015-03-28 04:42:00,27.0,19.0,29.90,West,279,0.0,-999.0,70,-99.99,,,-99.99,,2015-03-28 08:42:00,
2015-03-28 04:51:00,27.0,19.0,29.90,WNW,302,0.0,-999.0,70,-99.99,,,-99.99,,2015-03-28 08:51:00,
2015-03-28 05:11:00,26.0,17.0,29.91,WNW,295,0.0,-999.0,69,-99.99,,,-99.99,,2015-03-28 09:11:00,
2015-03-28 05:22:00,26.0,17.0,29.92,WNW,294,0.0,-999.0,69,-99.99,,,-99.99,,2015-03-28 09:22:00,
2015-03-28 05:52:00,26.0,18.0,29.92,WNW,292,0.0,-999.0,70,-99.99,,,-99.99,,2015-03-28 09:52:00,
2015-03-28 06:12:00,25.0,17.0,29.93,NW,304,0.0,-999.0,70,-99.99,,,-99.99,,2015-03-28 10:12:00,
2015-03-28 06:22:00,25.0,16.0,29.93,WNW,300,0.0,-999.0,69,-99.99,,,-99.99,,2015-03-28 10:22:00,
2015-03-28 06:52:00,25.0,16.0,29.95,WNW,302,0.0,-999.0,69,-99.99,,,-99.99,,2015-03-28 10:52:00,
2015-03-28 07:23:00,24.0,16.0,29.96,NW,326,0.0,-999.0,71,-99.99,,,-99.99,,2015-03-28 11:23:00,
2015-03-28 07:42:00,24.0,16.0,29.96,NW,317,0.0,-999.0,72,-99.99,,,-99.99,,2015-03-28 11:42:00,
2015-03-28 07:52:00,24.0,17.0,29.97,WNW,291,0.0,-999.0,73,-99.99,,,-99.99,,2015-03-28 11:52:00,
2015-03-28 08:11:00,24.0,17.0,29.98,WNW,294,0.0,-999.0,73,-99.99,,,-99.99,,2015-03-28 12:11:00,
2015-03-28 08:22:00,24.0,16.0,29.98,NW,309,0.0,-999.0,72,-99.99,,,-99.99,,2015-03-28 12:22:00,
2015-03-28 08:51:00,24.0,16.0,30.00,NW,306,0.0,-999.0,72,-99.99,,,-99.99,,2015-03-28 12:51:00,
2015-03-28 09:11:00,24.0,17.0,30.00,NW,309,0.0,-999.0,73,-99.99,,,-99.99,,2015-03-28 13:11:00,
2015-03-28 09:21:00,24.0,16.0,30.01,NW,307,0.0,-999.0,71,-99.99,,,-99.99,,2015-03-28 13:21:00,
2015-03-28 09:42:00,24.0,15.0,30.01,NW,313,0.0,-999.0,69,-99.99,,,-99.99,,2015-03-28 13:42:00,
2015-03-28 09:51:00,24.0,15.0,30.02,WNW,296,0.0,-999.0,69,-99.99,,,-99.99,,2015-03-28 13:51:00,
2015-03-28 10:21:00,25.0,15.0,30.03,WNW,292,0.0,-999.0,64,-99.99,,,-99.99,,2015-03-28 14:21:00,
2015-03-28 10:42:00,25.0,14.0,30.04,NW,308,0.0,-999.0,62,-99.99,,,-99.99,,2015-03-28 14:42:00,
2015-03-28 10:52:00,25.0,14.0,30.04,NW,309,0.0,-999.0,62,-99.99,,,-99.99,,2015-03-28 14:52:00,
2015-03-28 11:11:00,25.0,14.0,30.04,NW,326,0.0,-999.0,63,-99.99,,,-99.99,,2015-03-28 15:11:00,
2015-03-28 11:22:00,26.0,14.0,30.04,NW,319,0.0,-999.0,60,-99.99,,,-99.99,,2015-03-28 15:22:00,
2015-03-28 11:42:00,26.0,13.0,30.04,WNW,301,0.0,-999.0,58,-99.99,,,-99.99,,2015-03-28 15:42:00,
2015-03-28 11:52:00,26.0,14.0,30.04,NW,323,0.0,-999.0,59,-99.99,,,-99.99,,2015-03-28 15:52:00,
2015-03-28 12:12:00,26.0,13.0,30.04,NNW,345,0.0,-999.0,57,-99.99,,,-99.99,,2015-03-28 16:12:00,
2015-03-28 12:23:00,27.0,14.0,30.05,NW,323,0.0,-999.0,57,-99.99,,,-99.99,,2015-03-28 16:23:00,
2015-03-28 12:53:00,27.0,13.0,30.05,NNW,329,0.0,-999.0,55,-99.99,,,-99.99,,2015-03-28 16:53:00,
2015-03-28 13:13:00,27.0,13.0,30.05,West,273,0.0,-999.0,55,-99.99,,,-99.99,,2015-03-28 17:13:00,
2015-03-28 13:23:00,27.0,12.0,30.04,WNW,288,0.0,-999.0,53,-99.99,,,-99.99,,2015-03-28 17:23:00,
2015-03-28 13:42:00,28.0,13.0,30.04,WNW,303,0.0,-999.0,52,-99.99,,,-99.99,,2015-03-28 17:42:00,
2015-03-28 13:52:00,28.0,14.0,30.03,WNW,302,0.0,-999.0,54,-99.99,,,-99.99,,2015-03-28 17:52:00,
2015-03-28 14:12:00,29.0,14.0,30.03,WNW,292,0.0,-999.0,53,-99.99,,,-99.99,,2015-03-28 18:12:00,
2015-03-28 14:22:00,29.0,13.0,30.03,NNW,346,0.0,-999.0,50,-99.99,,,-99.99,,2015-03-28 18:22:00,
2015-03-28 14:53:00,28.0,14.0,30.04,NW,319,0.0,-999.0,56,-99.99,,,-99.99,,2015-03-28 18:53:00,
2015-03-28 15:12:00,28.0,16.0,30.04,NW,309,0.0,-999.0,61,-99.99,,,-99.99,,2015-03-28 19:12:00,
2015-03-28 15:22:00,28.0,16.0,30.04,NW,313,0.0,-999.0,60,-99.99,,,-99.99,,2015-03-28 19:22:00,
2015-03-28 15:52:00,29.0,16.0,30.04,WNW,294,0.0,-999.0,59,-99.99,,,-99.99,,2015-03-28 19:52:00,
2015-03-28 16:11:00,28.0,17.0,30.05,NW,308,0.0,-999.0,63,-99.99,,,-99.99,,2015-03-28 20:11:00,
2015-03-28 16:22:00,28.0,16.0,30.05,NNW,331,0.0,-999.0,61,-99.99,,,-99.99,,2015-03-28 20:22:00,
2015-03-28 16:41:00,29.0,15.0,30.05,NNW,336,0.0,-999.0,56,-99.99,,,-99.99,,2015-03-28 20:41:00,
2015-03-28 16:52:00,29.0,15.0,30.05,NNW,336,0.0,-999.0,56,-99.99,,,-99.99,,2015-03-28 20:52:00,
2015-03-28 17:11:00,29.0,13.0,30.06,NW,314,0.0,-999.0,51,-99.99,,,-99.99,,2015-03-28 21:11:00,
2015-03-28 17:22:00,29.0,13.0,30.06,NW,314,0.0,-999.0,51,-99.99,,,-99.99,,2015-03-28 21:22:00,
2015-03-28 17:42:00,29.0,13.0,30.07,WNW,291,0.0,-999.0,50,-99.99,,,-99.99,,2015-03-28 21:42:00,
2015-03-28 17:53:00,29.0,11.0,30.08,WNW,291,0.0,-999.0,47,-99.99,,,-99.99,,2015-03-28 21:53:00,
2015-03-28 18:23:00,30.0,10.0,30.08,NNW,348,0.0,-999.0,43,-99.99,,,-99.99,,2015-03-28 22:23:00,
2015-03-28 18:42:00,30.0,9.0,30.10,West,277,0.0,-999.0,41,-99.99,,,-99.99,,2015-03-28 22:42:00,
2015-03-28 18:53:00,30.0,9.0,30.10,NW,308,0.0,-999.0,40,-99.99,,,-99.99,,2015-03-28 22:53:00,
2015-03-28 19:12:00,30.0,8.0,30.11,NNW,338,0.0,-999.0,39,-99.99,,,-99.99,,2015-03-28 23:12:00,
2015-03-28 19:22:00,30.0,7.0,30.11,WNW,299,0.0,-999.0,37,-99.99,,,-99.99,,2015-03-28 23:22:00,
2015-03-28 19:42:00,30.0,6.0,30.13,North,355,0.0,-999.0,36,-99.99,,,-99.99,,2015-03-28 23:42:00,
2015-03-28 19:52:00,29.0,5.0,30.13,NW,315,0.0,-999.0,36,-99.99,,,-99.99,,2015-03-28 23:52:00,
2015-03-28 20:11:00,29.0,5.0,30.14,WNW,303,0.0,-999.0,36,-99.99,,,-99.99,,2015-03-29 00:11:00,
2015-03-28 20:22:00,29.0,5.0,30.16,NNW,331,0.0,-999.0,36,-99.99,,,-99.99,,2015-03-29 00:22:00,
2015-03-28 20:41:00,29.0,6.0,30.17,NW,323,0.0,-999.0,37,-99.99,,,-99.99,,2015-03-29 00:41:00,
2015-03-28 20:52:00,28.0,5.0,30.18,North,355,0.0,-999.0,37,-99.99,,,-99.99,,2015-03-29 00:52:00,
2015-03-28 21:11:00,28.0,6.0,30.19,NNW,334,0.0,-999.0,38,-99.99,,,-99.99,,2015-03-29 01:11:00,
2015-03-28 21:21:00,28.0,6.0,30.21,NW,316,0.0,-999.0,38,-99.99,,,-99.99,,2015-03-29 01:21:00,
2015-03-28 21:52:00,27.0,5.0,30.23,NNW,348,0.0,-999.0,39,-99.99,,,-99.99,,2015-03-29 01:52:00,
2015-03-28 22:11:00,27.0,5.0,30.23,NNW,348,0.0,-999.0,38,-99.99,,,-99.99,,2015-03-29 02:11:00,
2015-03-28 22:22:00,26.0,5.0,30.24,North,5,0.0,-999.0,40,-99.99,,,-99.99,,2015-03-29 02:22:00,
2015-03-28 22:41:00,26.0,5.0,30.25,North,355,0.0,-999.0,40,-99.99,,,-99.99,,2015-03-29 02:41:00,
2015-03-28 22:51:00,26.0,6.0,30.26,NNW,329,0.0,-999.0,41,-99.99,,,-99.99,,2015-03-29 02:51:00,
2015-03-28 23:12:00,25.0,5.0,30.27,NNW,337,0.0,-999.0,41,-99.99,,,-99.99,,2015-03-29 03:12:00,
2015-03-28 23:22:00,25.0,5.0,30.27,North,355,0.0,-999.0,42,-99.99,,,-99.99,,2015-03-29 03:22:00,
2015-03-28 23:43:00,25.0,5.0,30.28,NNW,348,0.0,-999.0,41,-99.99,,,-99.99,,2015-03-29 03:43:00,
2015-03-28 23:52:00,25.0,5.0,30.27,NW,315,0.0,-999.0,42,-99.99,,,-99.99,,2015-03-29 03:52:00,